Regional Weather Roundup
Issued by NWS Newport/Morehead, NC

Current Version | Previous Version | Graphics & Text | Print | Product List | Glossary Off
Versions: 1 2 3 4 5 6 7 8 9 10 11 12 13 14 15 16 17 18 19 20 21 22 23 24 25 26 27 28 29 30 31 32 33 34 35 36 37 38 39 40 41 42 43 44 45 46 47 48 49 50

000
ASUS42 KMHX 170114
RWRMHX
WEATHER ROUNDUP FOR EASTERN NORTH CAROLINA
NATIONAL WEATHER SERVICE NEWPORT/MOREHEAD CITY NC
800 PM EST TUE JAN 16 2018

NOTE: "FAIR" INDICATES FEW OR NO CLOUDS BELOW 12,000 FEET
WITH NO SIGNIFICANT WEATHER AND/OR OBSTRUCTIONS TO VISIBILITY

NCZ015>017-031-032-045>047-102-103-170200-
NORTH COAST

CITY           SKY/WX    TMP DP  RH WIND       PRES   REMARKS
EDENTON        NOT AVBL
ELIZABETH CITY FAIR      34  34 100 E3        30.36F
KITTY HAWK     FOG      N/A N/A N/A CALM      30.35F VSB 1/4
MANTEO         FOG       33  33 100 N3        30.37F VSB 1/4

$$

NCZ045>047-081-094-103-104-170200-
CENTRAL COAST

CITY           SKY/WX    TMP DP  RH WIND       PRES   REMARKS
FRISCO         FAIR      37  37 100 N6        30.36S

$$

NCZ095-097-098-100-101-170200-
SOUTHERN COAST

CITY           SKY/WX    TMP DP  RH WIND       PRES   REMARKS
BEAUFORT       FAIR      38  35  89 CALM      30.36S
CEDAR ISLAND   NOT AVBL
JACKSONVILLE   FAIR      39  32  76 CALM      30.36S
PINEY ISLAND   NOT AVBL
WILMINGTON     FAIR      39  32  76 CALM      30.37S


$$

NCZ011>013-027>030-043-044-078>080-089-090>093-098-170200-
COASTAL PLAIN

CITY           SKY/WX    TMP DP  RH WIND       PRES   REMARKS
AHOSKIE        FAIR      30  28  93 CALM      30.36S
CLINTON        FAIR      34  29  80 CALM      30.37S
ELIZABETHTOWN  NOT AVBL
GOLDSBORO      CLEAR     38  26  60 CALM      30.34S
GREENVILLE     FAIR      36  27  69 CALM      30.36S
HAVELOCK       CLEAR     40  34  79 N3        30.37S
KENANSVILLE    FAIR      32  27  80 CALM      30.36S
KINSTON        FAIR      34  28  80 CALM      30.37R
NEW BERN       FAIR      36  31  82 CALM      30.37S
RICHLANDS      FAIR      36  32  85 CALM      30.36F
ROCKY MOUNT    FAIR      32  27  81 CALM      30.36R
WASHINGTON     FAIR      37  31  78 SE3       30.36F
WHITEVILLE     FAIR      39  31  74 CALM      30.36R

$$

AMZ130-135-150-152-154-156-158-170-250-252-270-ANZ085-086-088-633-658-670-170200-
MARINE OBSERVATIONS

STATION/POSITION TIME  TEMP    WIND        PRES    WAVE   SWELL
                       AIR SEA DIR/SP/G            HT/PER HT/PER
                 (UTC) (F)     (DEG/KT/KT) (MB)    (FT/S) (FT/S)
CHESAPEAKE LIGHT NOT AVBL
64 E VA BEACH    0050   42 64  300/ 10/ 12 1027.7    8/11   8/11
DUCK             0048   34 39   10/  1/  2 1027.8
2 E DUCK         0100      39                N/A     5/11   3/11
OREGON INLET     0048          360/  4/  5   N/A
13E OREGON INLT  0048      45                N/A     6/11   5/11
HATTERAS CG      0048   39 47   20/  5/  9 1027.7
DIAMOND BUOY     0100   47     340/ 10/ 14 1028.1
CAPE LOOKOUT     0000          340/  5/  6 1028.0
BEAUFORT LAB     0048   42 46   CALM  /  2 1028.0
30 SE NEW RVR IN 0008   52 59  360/  6/  8 1027.7
30 SE NEW RVR IN 0100      59                N/A     4/11   2/11
27 SE WRIGHTSVLE 0008   52 63  340/  8/ 12 1027.6
5 SE WRIGHTSVLE  0008   46 47  270/  4/  8 1027.7
225 S CAPE HAT   0050   67 71   80/  6/  8 1025.4    8/11   8/11
41 SE CHARLESTON 0100   55     340/  8/ 10 1027.8

$$




USA.gov is the U.S. government's official web portal to all federal, state and local government web resources and services.